International Skating Union - Official Site

ISU World Cup Astana
December 2-4, 2016

Draw | Lap Times | Index | World Cup

Referee: Masaru  MOROZUMI  (JPN)
Starter: Stefan  HERRMANN  (GER)
StartTime: EndTime: Air Temp: Ice Temp: Humidity:
20:48 21:50 17.1℃ -6.9℃ 39.0%
Result 5000m Men Division A
Rankings as of Dec 2 2016 10:01PM
Rank: No.: Name: Nation: Time: Behind: Points:
1 103 Peter  Michael NZL NZL 6:21.58200m - 18.76 - (18.7)
600m - 48.12 - (29.3)
1000m - 1:17.94 - (29.8)
1400m - 1:47.82 - (29.8)
1800m - 2:17.80 - (29.9)
2200m - 2:47.80 - (30.0)
2600m - 3:17.63 - (29.8)
3000m - 3:47.82 - (30.1)
3400m - 4:18.19 - (30.3)
3800m - 4:48.79 - (30.6)
4200m - 5:19.58 - (30.7)
4600m - 5:51.02 - (31.4)
5000m - 6:21.58 - (30.5)
100
2 40 Patrick  Beckert GER GER 6:22.09200m - 19.27 - (19.2)
600m - 48.57 - (29.3)
1000m - 1:18.74 - (30.1)
1400m - 1:48.98 - (30.2)
1800m - 2:19.36 - (30.3)
2200m - 2:49.76 - (30.4)
2600m - 3:20.24 - (30.4)
3000m - 3:50.94 - (30.7)
3400m - 4:21.42 - (30.4)
3800m - 4:51.51 - (30.0)
4200m - 5:21.68 - (30.1)
4600m - 5:51.83 - (30.1)
5000m - 6:22.09 - (30.2)
0.51 80
3 10 Ted-Jan  Bloemen CAN CAN 6:22.82200m - 18.91 - (18.9)
600m - 48.43 - (29.5)
1000m - 1:17.60 - (29.1)
1400m - 1:47.07 - (29.4)
1800m - 2:16.83 - (29.7)
2200m - 2:46.90 - (30.0)
2600m - 3:17.33 - (30.4)
3000m - 3:47.88 - (30.5)
3400m - 4:18.58 - (30.7)
3800m - 4:49.48 - (30.9)
4200m - 5:20.45 - (30.9)
4600m - 5:51.60 - (31.1)
5000m - 6:22.82 - (31.2)
1.24 70
4 50 Andrea  Giovannini ITA ITA 6:24.38200m - 19.28 - (19.2)
600m - 49.00 - (29.7)
1000m - 1:19.59 - (30.5)
1400m - 1:50.17 - (30.5)
1800m - 2:20.69 - (30.5)
2200m - 2:51.09 - (30.4)
2600m - 3:21.52 - (30.4)
3000m - 3:51.85 - (30.3)
3400m - 4:21.97 - (30.1)
3800m - 4:52.19 - (30.2)
4200m - 5:22.49 - (30.3)
4600m - 5:53.11 - (30.6)
5000m - 6:24.38 - (31.2)
2.80 60
5 42 Moritz  Geisreiter GER GER 6:25.83200m - 18.60 - (18.6)
600m - 48.05 - (29.4)
1000m - 1:17.77 - (29.7)
1400m - 1:48.09 - (30.3)
1800m - 2:18.12 - (30.0)
2200m - 2:48.27 - (30.1)
2600m - 3:18.61 - (30.3)
3000m - 3:49.42 - (30.8)
3400m - 4:20.42 - (31.0)
3800m - 4:51.48 - (31.0)
4200m - 5:22.75 - (31.2)
4600m - 5:54.33 - (31.5)
5000m - 6:25.83 - (31.5)
4.25 50
6 63 Shane  Williamson JPN JPN 6:26.78 (6) 200m - 18.80 - (18.8)
600m - 49.00 - (30.2)
1000m - 1:19.26 - (30.2)
1400m - 1:49.92 - (30.6)
1800m - 2:20.51 - (30.5)
2200m - 2:51.45 - (30.9)
2600m - 3:22.09 - (30.6)
3000m - 3:53.10 - (31.0)
3400m - 4:23.82 - (30.7)
3800m - 4:54.60 - (30.7)
4200m - 5:25.05 - (30.4)
4600m - 5:55.77 - (30.7)
5000m - 6:26.78 - (31.0)
5.20 45
7 99 Sverre Lunde  Pedersen NOR NOR 6:26.78 (8) 200m - 18.94 - (18.9)
600m - 49.19 - (30.2)
1000m - 1:19.94 - (30.7)
1400m - 1:50.42 - (30.4)
1800m - 2:20.88 - (30.4)
2200m - 2:51.59 - (30.7)
2600m - 3:22.13 - (30.5)
3000m - 3:52.81 - (30.6)
3400m - 4:23.44 - (30.6)
3800m - 4:54.10 - (30.6)
4200m - 5:24.56 - (30.4)
4600m - 5:55.15 - (30.5)
5000m - 6:26.78 - (31.6)
5.20 40
8 9 Jordan  Belchos CAN CAN 6:27.60200m - 19.23 - (19.2)
600m - 49.22 - (29.9)
1000m - 1:19.70 - (30.4)
1400m - 1:50.23 - (30.5)
1800m - 2:20.81 - (30.5)
2200m - 2:51.27 - (30.4)
2600m - 3:22.03 - (30.7)
3000m - 3:52.76 - (30.7)
3400m - 4:23.92 - (31.1)
3800m - 4:55.08 - (31.1)
4200m - 5:26.04 - (30.9)
4600m - 5:56.90 - (30.8)
5000m - 6:27.60 - (30.7)
6.02 35
9 62 Ryosuke  Tsuchiya JPN JPN 6:29.22200m - 18.89 - (18.8)
600m - 48.89 - (30.0)
1000m - 1:19.45 - (30.5)
1400m - 1:50.33 - (30.8)
1800m - 2:21.29 - (30.9)
2200m - 2:52.19 - (30.9)
2600m - 3:22.98 - (30.7)
3000m - 3:53.87 - (30.8)
3400m - 4:24.70 - (30.8)
3800m - 4:55.62 - (30.9)
4200m - 5:26.59 - (30.9)
4600m - 5:57.90 - (31.3)
5000m - 6:29.22 - (31.3)
7.64 30
10 54 Nicola  Tumolero ITA ITA 6:29.33200m - 19.39 - (19.3)
600m - 49.45 - (30.0)
1000m - 1:20.47 - (31.0)
1400m - 1:51.38 - (30.9)
1800m - 2:22.36 - (30.9)
2200m - 2:53.05 - (30.6)
2600m - 3:24.14 - (31.0)
3000m - 3:54.82 - (30.6)
3400m - 4:25.90 - (31.0)
3800m - 4:56.74 - (30.8)
4200m - 5:27.87 - (31.1)
4600m - 5:58.76 - (30.8)
5000m - 6:29.33 - (30.5)
7.75 25
11 81 Seung-Hoon  Lee KOR KOR 6:32.53200m - 18.89 - (18.8)
600m - 48.26 - (29.3)
1000m - 1:18.02 - (29.7)
1400m - 1:47.98 - (29.9)
1800m - 2:18.42 - (30.4)
2200m - 2:49.13 - (30.7)
2600m - 3:20.30 - (31.1)
3000m - 3:51.99 - (31.6)
3400m - 4:23.92 - (31.9)
3800m - 4:55.65 - (31.7)
4200m - 5:27.68 - (32.0)
4600m - 5:59.79 - (32.1)
5000m - 6:32.53 - (32.7)
10.95 21
12 39 Alexis  Contin FRA FRA 6:32.95200m - 19.19 - (19.1)
600m - 49.10 - (29.9)
1000m - 1:19.71 - (30.6)
1400m - 1:50.05 - (30.3)
1800m - 2:20.28 - (30.2)
2200m - 2:50.59 - (30.3)
2600m - 3:21.24 - (30.6)
3000m - 3:51.94 - (30.7)
3400m - 4:22.93 - (30.9)
3800m - 4:54.37 - (31.4)
4200m - 5:26.31 - (31.9)
4600m - 5:59.35 - (33.0)
5000m - 6:32.95 - (33.6)
11.37 18
13 51 Michele  Malfatti ITA ITA 6:33.10200m - 19.13 - (19.1)
600m - 49.18 - (30.0)
1000m - 1:19.57 - (30.3)
1400m - 1:49.74 - (30.1)
1800m - 2:19.98 - (30.2)
2200m - 2:50.66 - (30.6)
2600m - 3:21.77 - (31.1)
3000m - 3:53.01 - (31.2)
3400m - 4:24.56 - (31.5)
3800m - 4:56.51 - (31.9)
4200m - 5:28.61 - (32.1)
4600m - 6:00.73 - (32.1)
5000m - 6:33.10 - (32.3)
11.52 16
14 49 Davide  Ghiotto ITA ITA 6:33.29200m - 19.43 - (19.4)
600m - 48.99 - (29.5)
1000m - 1:19.98 - (30.9)
1400m - 1:50.53 - (30.5)
1800m - 2:21.24 - (30.7)
2200m - 2:51.76 - (30.5)
2600m - 3:22.69 - (30.9)
3000m - 3:53.68 - (30.9)
3400m - 4:24.93 - (31.2)
3800m - 4:56.23 - (31.3)
4200m - 5:28.26 - (32.0)
4600m - 6:00.56 - (32.3)
5000m - 6:33.29 - (32.7)
11.71 14
15 92 Arjan  Stroetinga NED NED 6:36.96200m - 19.35 - (19.3)
600m - 49.82 - (30.4)
1000m - 1:20.46 - (30.6)
1400m - 1:50.91 - (30.4)
1800m - 2:21.47 - (30.5)
2200m - 2:51.99 - (30.5)
2600m - 3:22.84 - (30.8)
3000m - 3:53.82 - (30.9)
3400m - 4:25.70 - (31.8)
3800m - 4:57.79 - (32.0)
4200m - 5:30.36 - (32.5)
4600m - 6:03.37 - (33.0)
5000m - 6:36.96 - (33.6)
15.38 12
16 123 Danila  Semerikov RUS RUS 6:43.25200m - 19.20 - (19.2)
600m - 49.78 - (30.5)
1000m - 1:20.37 - (30.5)
1400m - 1:51.34 - (30.9)
1800m - 2:22.51 - (31.1)
2200m - 2:53.69 - (31.1)
2600m - 3:24.80 - (31.1)
3000m - 3:56.67 - (31.8)
3400m - 4:28.33 - (31.6)
3800m - 5:00.66 - (32.3)
4200m - 5:34.64 - (33.9)
4600m - 6:08.79 - (34.1)
5000m - 6:43.25 - (34.4)
21.67 10